Location: Unspecified
(0.0000°N, 0.0000°E)
Time: 17:53:44
(UTC+00:00)

Courier 1B Rocket - Pass Details

Date: 21 April 2021
Orbit: 920 x 1202 km, 28.3° (Epoch: 14 May)

Event Time Altitude Azimuth Distance (km) Brightness Sun altitude
Exits shadow 02:43:12 21° 106° (ESE) 2,400 7.3 -47.5°
Drops below altitude 10° 02:45:24 10° 111° (ESE) 3,098 8.0 -47.0°
Sets 02:48:13 0° 113° (ESE) 4,038 8.7 -46.3°
